AZU8748 SBPA-SAZS

Flight info

Callsign AZU8748
Flight time 1h 21m
Altitude 36000
Route ISOBU UZ38 UMRUD UN741 EZE/N0454F380 UT654 ORERA ORERA2Q
Aircraft A21N/M-SDE2E3FGHIRWXY/LB1

Departure

Time 2026-04-27 12:13
Airport Porto Alegre-Salgado Filho International Airport (SBPA)

Arrival

Time 2026-04-27 13:34
Airport Teniente Luis Candelaria International Airport (SAZS)
Time Latitude Longitude Altitude Speed Heading
2026-04-27 11:38 -29.99026 -51.17865 19 ft 0 kts 114°
2026-04-27 12:01 -29.99019 -51.17884 21 ft 0 kts 111°
2026-04-27 12:02 -29.99010 -51.17913 22 ft 0 kts 108°
2026-04-27 12:02 -29.99001 -51.17942 18 ft 0 kts 118°
2026-04-27 12:02 -29.98989 -51.17959 20 ft 0 kts 186°
2026-04-27 12:02 -29.98982 -51.17956 24 ft 0 kts 206°
2026-04-27 12:05 -29.98991 -51.17961 20 ft 3 kts 206°
2026-04-27 12:05 -29.99019 -51.17976 18 ft 6 kts 206°
2026-04-27 12:06 -29.99062 -51.18002 18 ft 8 kts 207°
2026-04-27 12:06 -29.99119 -51.18036 18 ft 10 kts 207°
2026-04-27 12:06 -29.99184 -51.18073 18 ft 9 kts 201°
2026-04-27 12:06 -29.99234 -51.18033 19 ft 11 kts 119°
2026-04-27 12:07 -29.99270 -51.17947 20 ft 13 kts 109°
2026-04-27 12:07 -29.99283 -51.17839 19 ft 15 kts 91°
2026-04-27 12:07 -29.99277 -51.17718 19 ft 16 kts 73°
2026-04-27 12:07 -29.99263 -51.17583 19 ft 18 kts 91°
2026-04-27 12:08 -29.99265 -51.17434 19 ft 19 kts 91°
2026-04-27 12:08 -29.99269 -51.17274 19 ft 21 kts 91°
2026-04-27 12:08 -29.99272 -51.17103 19 ft 22 kts 91°
2026-04-27 12:08 -29.99276 -51.16921 19 ft 23 kts 91°
2026-04-27 12:09 -29.99280 -51.16728 19 ft 25 kts 91°
2026-04-27 12:09 -29.99283 -51.16525 20 ft 26 kts 91°
2026-04-27 12:09 -29.99286 -51.16341 20 ft 16 kts 91°
2026-04-27 12:09 -29.99314 -51.16240 21 ft 15 kts 152°
2026-04-27 12:10 -29.99423 -51.16230 23 ft 17 kts 181°
2026-04-27 12:10 -29.99480 -51.16141 23 ft 17 kts 90°
2026-04-27 12:10 -29.99484 -51.15998 22 ft 18 kts 91°
2026-04-27 12:10 -29.99486 -51.15846 22 ft 20 kts 91°
2026-04-27 12:11 -29.99490 -51.15681 22 ft 21 kts 91°
2026-04-27 12:11 -29.99492 -51.15508 19 ft 22 kts 91°
2026-04-27 12:11 -29.99495 -51.15326 19 ft 23 kts 91°
2026-04-27 12:11 -29.99495 -51.15181 20 ft 13 kts 77°
2026-04-27 12:12 -29.99448 -51.15091 19 ft 12 kts 62°
2026-04-27 12:12 -29.99450 -51.15013 21 ft 9 kts 125°
2026-04-27 12:12 -29.99502 -51.15026 19 ft 11 kts 257°
2026-04-27 12:12 -29.99501 -51.15127 20 ft 18 kts 271°
2026-04-27 12:13 -29.99493 -51.15605 25 ft 99 kts 271°
2026-04-27 12:13 -29.99476 -51.16615 250 ft 136 kts 271°
2026-04-27 12:13 -29.99461 -51.17718 935 ft 141 kts 270°
2026-04-27 12:13 -29.99441 -51.18911 1596 ft 156 kts 272°
2026-04-27 12:14 -29.99422 -51.20233 2216 ft 174 kts 271°
2026-04-27 12:14 -29.99398 -51.21656 2971 ft 184 kts 269°
2026-04-27 12:14 -29.99364 -51.23154 3896 ft 188 kts 271°
2026-04-27 12:14 -29.99327 -51.24659 4868 ft 188 kts 272°
2026-04-27 12:15 -29.99468 -51.26164 5808 ft 192 kts 256°
2026-04-27 12:15 -30.00174 -51.27513 6736 ft 205 kts 233°
2026-04-27 12:15 -30.01490 -51.28440 7239 ft 248 kts 205°
2026-04-27 12:15 -30.03327 -51.28636 7819 ft 277 kts 190°
2026-04-27 12:16 -30.05276 -51.28589 8724 ft 281 kts 190°
2026-04-27 12:16 -30.07232 -51.28555 9764 ft 280 kts 192°
2026-04-27 12:16 -30.09173 -51.28552 10541 ft 290 kts 192°
2026-04-27 12:16 -30.11268 -51.28580 10916 ft 312 kts 192°
2026-04-27 12:17 -30.13522 -51.28617 11234 ft 335 kts 191°
2026-04-27 12:17 -30.15878 -51.28774 11833 ft 337 kts 200°
2026-04-27 12:17 -30.18033 -51.29642 12598 ft 323 kts 218°
2026-04-27 12:17 -30.19821 -51.31167 13407 ft 319 kts 227°
2026-04-27 12:18 -30.21515 -51.32842 14175 ft 322 kts 228°
2026-04-27 12:18 -30.23228 -51.34535 14903 ft 326 kts 228°
2026-04-27 12:18 -30.24972 -51.36241 15638 ft 330 kts 228°
2026-04-27 12:18 -30.26736 -51.37954 16358 ft 333 kts 228°
2026-04-27 12:19 -30.28527 -51.39686 17054 ft 337 kts 228°
2026-04-27 12:19 -30.30342 -51.41442 17738 ft 341 kts 229°
2026-04-27 12:19 -30.32173 -51.43211 18400 ft 344 kts 229°
2026-04-27 12:19 -30.33998 -51.44977 18965 ft 348 kts 229°
2026-04-27 12:20 -30.35885 -51.46804 19564 ft 351 kts 229°
2026-04-27 12:20 -30.37750 -51.48611 20163 ft 354 kts 229°
2026-04-27 12:20 -30.39645 -51.50449 20753 ft 357 kts 229°
2026-04-27 12:20 -30.41557 -51.52300 21335 ft 360 kts 229°
2026-04-27 12:21 -30.43491 -51.54167 21927 ft 363 kts 230°
2026-04-27 12:21 -30.45444 -51.56055 22492 ft 367 kts 230°
2026-04-27 12:21 -30.47414 -51.57965 23091 ft 370 kts 230°
2026-04-27 12:21 -30.49382 -51.59905 23652 ft 371 kts 232°
2026-04-27 12:22 -30.51116 -51.62084 24106 ft 364 kts 241°
2026-04-27 12:22 -30.52588 -51.64472 24573 ft 364 kts 244°
2026-04-27 12:22 -30.54010 -51.66868 25045 ft 366 kts 244°
2026-04-27 12:22 -30.55460 -51.69305 25514 ft 368 kts 244°
2026-04-27 12:23 -30.56924 -51.71755 26000 ft 370 kts 245°
2026-04-27 12:23 -30.58401 -51.74215 26474 ft 372 kts 245°
2026-04-27 12:23 -30.59888 -51.76693 26940 ft 373 kts 245°
2026-04-27 12:23 -30.61377 -51.79174 27397 ft 375 kts 246°
2026-04-27 12:24 -30.62862 -51.81661 27830 ft 377 kts 246°
2026-04-27 12:24 -30.64360 -51.84174 28309 ft 379 kts 246°
2026-04-27 12:24 -30.65703 -51.86738 28698 ft 372 kts 253°
2026-04-27 12:24 -30.66648 -51.89495 29075 ft 363 kts 262°
2026-04-27 12:25 -30.67120 -51.92340 29488 ft 356 kts 270°
2026-04-27 12:25 -30.67248 -51.95195 29981 ft 351 kts 273°
2026-04-27 12:25 -30.67317 -51.98021 30498 ft 347 kts 273°
2026-04-27 12:25 -30.67387 -52.00812 30986 ft 344 kts 273°
2026-04-27 12:26 -30.67464 -52.03572 31471 ft 341 kts 273°
2026-04-27 12:26 -30.67543 -52.06314 31964 ft 338 kts 273°
2026-04-27 12:26 -30.67624 -52.09035 32413 ft 336 kts 273°
2026-04-27 12:26 -30.67703 -52.11739 32838 ft 333 kts 274°
2026-04-27 12:27 -30.67782 -52.14415 33270 ft 331 kts 274°
2026-04-27 12:27 -30.67860 -52.17081 33681 ft 329 kts 274°
2026-04-27 12:27 -30.67933 -52.19691 34025 ft 326 kts 274°
2026-04-27 12:27 -30.68008 -52.22325 34339 ft 324 kts 274°
2026-04-27 12:28 -30.68079 -52.24942 34600 ft 324 kts 274°
2026-04-27 12:28 -30.68149 -52.27552 34823 ft 323 kts 274°
2026-04-27 12:28 -30.68221 -52.30162 35107 ft 323 kts 273°
2026-04-27 12:28 -30.68296 -52.32773 35308 ft 323 kts 273°
2026-04-27 12:29 -30.68370 -52.35383 35511 ft 323 kts 273°
2026-04-27 12:29 -30.68445 -52.37993 35703 ft 323 kts 273°
2026-04-27 12:29 -30.68520 -52.40600 35917 ft 323 kts 273°
2026-04-27 12:29 -30.68590 -52.43208 36120 ft 323 kts 273°
2026-04-27 12:30 -30.68660 -52.45809 36166 ft 322 kts 273°
2026-04-27 12:30 -30.68800 -52.50991 36146 ft 320 kts 273°
2026-04-27 12:31 -30.68936 -52.56177 36143 ft 322 kts 273°
2026-04-27 12:31 -30.69104 -52.62662 36127 ft 322 kts 273°
2026-04-27 12:32 -30.69728 -52.83432 36139 ft 324 kts 271°
2026-04-27 12:32 -30.71040 -53.04344 36164 ft 324 kts 271°
2026-04-27 12:33 -30.72305 -53.25177 36152 ft 323 kts 271°
2026-04-27 12:33 -30.77088 -53.45419 36147 ft 353 kts 248°
2026-04-27 12:34 -30.87935 -53.64323 36154 ft 351 kts 249°
2026-04-27 12:34 -30.98747 -53.83344 36160 ft 351 kts 249°
2026-04-27 12:35 -31.09460 -54.02305 36160 ft 353 kts 248°
2026-04-27 12:35 -31.20275 -54.21517 36135 ft 354 kts 248°
2026-04-27 12:36 -31.31147 -54.40936 36170 ft 358 kts 247°
2026-04-27 12:36 -31.42073 -54.60547 36166 ft 360 kts 247°
2026-04-27 12:36 -31.48900 -54.69554 36170 ft 379 kts 234°
2026-04-27 12:37 -31.56713 -54.77876 36165 ft 380 kts 234°
2026-04-27 12:37 -31.72211 -54.94623 36162 ft 382 kts 234°
2026-04-27 12:38 -31.87864 -55.11625 36150 ft 383 kts 234°
2026-04-27 12:38 -32.03525 -55.28709 36156 ft 382 kts 233°
2026-04-27 12:39 -32.19109 -55.45809 36144 ft 382 kts 233°
2026-04-27 12:39 -32.34679 -55.62966 36154 ft 383 kts 233°
2026-04-27 12:40 -32.50171 -55.80115 36129 ft 384 kts 232°
2026-04-27 12:40 -32.65794 -55.97497 36181 ft 384 kts 232°
2026-04-27 12:41 -32.81382 -56.14932 36121 ft 385 kts 232°
2026-04-27 12:41 -32.96972 -56.32459 36116 ft 386 kts 232°
2026-04-27 12:42 -33.09916 -56.47145 36105 ft 386 kts 231°
2026-04-27 12:42 -33.28012 -56.67746 36092 ft 386 kts 231°
2026-04-27 12:43 -33.43533 -56.85523 36103 ft 387 kts 231°
2026-04-27 12:43 -33.59112 -57.03450 36123 ft 387 kts 231°
2026-04-27 12:44 -33.72029 -57.18383 36099 ft 390 kts 230°
2026-04-27 12:44 -33.87669 -57.36572 36118 ft 390 kts 230°
2026-04-27 12:45 -34.03301 -57.54846 36144 ft 391 kts 229°
2026-04-27 12:45 -34.18871 -57.73125 36102 ft 390 kts 229°
2026-04-27 12:46 -34.34401 -57.91461 36098 ft 390 kts 229°
2026-04-27 12:46 -34.49446 -58.10250 36091 ft 387 kts 230°
2026-04-27 12:47 -34.63799 -58.29024 36108 ft 386 kts 230°
2026-04-27 12:47 -34.78572 -58.48463 36103 ft 385 kts 229°
2026-04-27 12:48 -34.85167 -58.57982 36234 ft 386 kts 235°
2026-04-27 12:48 -34.86748 -58.60621 36476 ft 385 kts 235°
2026-04-27 12:48 -34.88310 -58.63217 36748 ft 384 kts 235°
2026-04-27 12:48 -34.89896 -58.65842 36999 ft 383 kts 235°
2026-04-27 12:49 -34.91478 -58.68456 37240 ft 383 kts 235°
2026-04-27 12:49 -34.93063 -58.71074 37467 ft 382 kts 236°
2026-04-27 12:49 -34.94648 -58.73693 37689 ft 382 kts 236°
2026-04-27 12:49 -34.96228 -58.76300 37904 ft 382 kts 236°
2026-04-27 12:50 -34.97778 -58.78865 38098 ft 382 kts 236°
2026-04-27 12:50 -35.01666 -58.85305 38141 ft 380 kts 236°
2026-04-27 12:51 -35.14199 -59.06135 38122 ft 381 kts 236°
2026-04-27 12:51 -35.26552 -59.27204 38126 ft 381 kts 237°
2026-04-27 12:52 -35.38760 -59.48428 38133 ft 381 kts 236°
2026-04-27 12:52 -35.50939 -59.69223 38145 ft 382 kts 236°
2026-04-27 12:53 -35.69519 -60.01237 38164 ft 383 kts 236°
2026-04-27 12:53 -35.81832 -60.22622 38180 ft 383 kts 236°
2026-04-27 12:54 -35.94045 -60.43951 38217 ft 383 kts 236°
2026-04-27 12:54 -36.06320 -60.65537 38198 ft 384 kts 235°
2026-04-27 12:55 -36.18536 -60.87218 38213 ft 384 kts 236°
2026-04-27 12:55 -36.30705 -61.09042 38212 ft 384 kts 235°
2026-04-27 12:56 -36.42759 -61.30787 38213 ft 385 kts 235°
2026-04-27 12:56 -36.54847 -61.52752 38218 ft 385 kts 235°
2026-04-27 12:57 -36.65991 -61.73125 38227 ft 385 kts 235°
2026-04-27 12:57 -36.68997 -61.78650 38224 ft 385 kts 235°
2026-04-27 12:58 -36.76623 -61.92676 38234 ft 385 kts 235°
2026-04-27 12:58 -36.88594 -62.14826 38225 ft 384 kts 235°
2026-04-27 12:59 -37.00489 -62.36984 38233 ft 384 kts 235°
2026-04-27 12:59 -37.12262 -62.59057 38235 ft 383 kts 235°
2026-04-27 13:00 -37.24065 -62.81333 38243 ft 382 kts 236°
2026-04-27 13:00 -37.35789 -63.03594 38244 ft 382 kts 236°
2026-04-27 13:01 -37.47493 -63.25903 38215 ft 383 kts 236°
2026-04-27 13:01 -37.59224 -63.48412 38226 ft 385 kts 235°
2026-04-27 13:02 -37.70949 -63.71062 38238 ft 385 kts 235°
2026-04-27 13:02 -37.82641 -63.93808 38231 ft 385 kts 235°
2026-04-27 13:03 -37.94254 -64.16537 38232 ft 384 kts 236°
2026-04-27 13:03 -38.05766 -64.39243 38217 ft 383 kts 236°
2026-04-27 13:04 -38.17235 -64.62049 38227 ft 383 kts 236°
2026-04-27 13:04 -38.28659 -64.84953 38222 ft 383 kts 236°
2026-04-27 13:05 -38.43956 -65.15930 38260 ft 382 kts 236°
2026-04-27 13:05 -38.60447 -65.52114 36661 ft 382 kts 231°
2026-04-27 13:05 -38.66785 -65.62048 38265 ft 359 kts 238°
2026-04-27 13:06 -38.72005 -65.73381 38254 ft 381 kts 236°
2026-04-27 13:06 -38.77620 -65.84964 38201 ft 383 kts 236°
2026-04-27 13:06 -38.88734 -66.08111 38199 ft 380 kts 237°
2026-04-27 13:07 -38.99742 -66.31253 38190 ft 378 kts 237°
2026-04-27 13:07 -39.10695 -66.54478 38181 ft 379 kts 237°
2026-04-27 13:08 -39.21498 -66.77526 38176 ft 378 kts 237°
2026-04-27 13:08 -39.32302 -67.00777 38174 ft 377 kts 238°
2026-04-27 13:09 -39.43051 -67.24084 38158 ft 378 kts 238°
2026-04-27 13:09 -39.53788 -67.47508 38160 ft 380 kts 238°
2026-04-27 13:10 -39.64587 -67.71259 38153 ft 382 kts 238°
2026-04-27 13:10 -39.75332 -67.95083 38151 ft 382 kts 238°
2026-04-27 13:11 -39.86541 -68.18604 38150 ft 382 kts 236°
2026-04-27 13:11 -39.98142 -68.41523 38147 ft 381 kts 235°
2026-04-27 13:12 -40.09773 -68.64675 38163 ft 380 kts 236°
2026-04-27 13:12 -40.21313 -68.87808 38154 ft 380 kts 236°
2026-04-27 13:13 -40.32797 -69.11001 38150 ft 379 kts 236°
2026-04-27 13:13 -40.35894 -69.17287 37844 ft 372 kts 236°
2026-04-27 13:13 -40.37312 -69.20171 36740 ft 381 kts 237°
2026-04-27 13:14 -40.38756 -69.23109 35881 ft 383 kts 237°
2026-04-27 13:14 -40.40194 -69.26035 35291 ft 379 kts 237°
2026-04-27 13:14 -40.41618 -69.28934 34952 ft 379 kts 237°
2026-04-27 13:14 -40.43027 -69.31807 34688 ft 379 kts 237°
2026-04-27 13:15 -40.44449 -69.34708 34303 ft 377 kts 237°
2026-04-27 13:15 -40.45863 -69.37594 33673 ft 375 kts 237°
2026-04-27 13:15 -40.47276 -69.40484 32966 ft 376 kts 237°
2026-04-27 13:15 -40.48689 -69.43376 32285 ft 376 kts 237°
2026-04-27 13:16 -40.50101 -69.46269 31657 ft 375 kts 237°
2026-04-27 13:16 -40.51504 -69.49145 31086 ft 373 kts 237°
2026-04-27 13:16 -40.52903 -69.52016 30544 ft 371 kts 237°
2026-04-27 13:16 -40.54291 -69.54868 29976 ft 369 kts 237°
2026-04-27 13:17 -40.55649 -69.57661 29374 ft 367 kts 237°
2026-04-27 13:17 -40.57018 -69.60475 28812 ft 364 kts 237°
2026-04-27 13:17 -40.58381 -69.63281 28251 ft 361 kts 237°
2026-04-27 13:17 -40.59728 -69.66059 27709 ft 358 kts 237°
2026-04-27 13:18 -40.61064 -69.68817 27153 ft 356 kts 237°
2026-04-27 13:18 -40.62377 -69.71529 26604 ft 354 kts 237°
2026-04-27 13:18 -40.63697 -69.74257 26067 ft 352 kts 237°
2026-04-27 13:18 -40.65005 -69.76964 25547 ft 350 kts 237°
2026-04-27 13:19 -40.66310 -69.79666 25019 ft 349 kts 237°
2026-04-27 13:19 -40.67611 -69.82362 24482 ft 348 kts 237°
2026-04-27 13:19 -40.68910 -69.85056 23945 ft 347 kts 236°
2026-04-27 13:19 -40.70204 -69.87739 23362 ft 347 kts 236°
2026-04-27 13:20 -40.71481 -69.90394 22796 ft 345 kts 236°
2026-04-27 13:20 -40.72764 -69.93061 22238 ft 344 kts 236°
2026-04-27 13:20 -40.74043 -69.95725 21678 ft 343 kts 236°
2026-04-27 13:20 -40.75316 -69.98376 21137 ft 341 kts 236°
2026-04-27 13:21 -40.76583 -70.01018 20615 ft 340 kts 236°
2026-04-27 13:21 -40.77844 -70.03650 20102 ft 338 kts 236°
2026-04-27 13:21 -40.79094 -70.06263 19633 ft 335 kts 236°
2026-04-27 13:21 -40.80334 -70.08855 19193 ft 333 kts 236°
2026-04-27 13:22 -40.81571 -70.11439 18736 ft 332 kts 236°
2026-04-27 13:22 -40.82804 -70.14021 18246 ft 333 kts 236°
2026-04-27 13:22 -40.84041 -70.16613 17753 ft 332 kts 236°
2026-04-27 13:22 -40.85275 -70.19201 17279 ft 332 kts 237°
2026-04-27 13:23 -40.86490 -70.21750 16802 ft 332 kts 236°
2026-04-27 13:23 -40.87720 -70.24334 16336 ft 333 kts 237°
2026-04-27 13:23 -40.88952 -70.26925 15898 ft 332 kts 237°
2026-04-27 13:23 -40.90179 -70.29507 15484 ft 331 kts 237°
2026-04-27 13:24 -40.91406 -70.32091 15041 ft 330 kts 237°
2026-04-27 13:24 -40.92629 -70.34669 14582 ft 330 kts 237°
2026-04-27 13:24 -40.93848 -70.37240 14156 ft 330 kts 237°
2026-04-27 13:24 -40.95072 -70.39824 13701 ft 331 kts 237°
2026-04-27 13:25 -40.96290 -70.42399 13244 ft 330 kts 237°
2026-04-27 13:25 -40.97536 -70.44938 12797 ft 328 kts 232°
2026-04-27 13:25 -40.98931 -70.47269 12358 ft 327 kts 230°
2026-04-27 13:25 -41.00341 -70.49541 11938 ft 322 kts 229°
2026-04-27 13:26 -41.01750 -70.51807 11527 ft 315 kts 229°
2026-04-27 13:26 -41.03127 -70.54027 11101 ft 309 kts 229°
2026-04-27 13:26 -41.07888 -70.61740 10240 ft 269 kts 229°
2026-04-27 13:26 -41.12442 -70.69144 8989 ft 255 kts 230°
2026-04-27 13:27 -41.16848 -70.76331 7948 ft 237 kts 231°
2026-04-27 13:27 -41.19032 -70.79903 7590 ft 217 kts 231°
2026-04-27 13:27 -41.19970 -70.81441 7375 ft 211 kts 232°
2026-04-27 13:27 -41.20885 -70.82934 7203 ft 208 kts 232°
2026-04-27 13:28 -41.21799 -70.84428 7079 ft 208 kts 232°
2026-04-27 13:28 -41.22676 -70.85862 7080 ft 192 kts 232°
2026-04-27 13:28 -41.23498 -70.87211 7122 ft 186 kts 233°
2026-04-27 13:28 -41.24070 -70.88612 7103 ft 164 kts 255°
2026-04-27 13:29 -41.23993 -70.90065 6995 ft 158 kts 282°
2026-04-27 13:29 -41.23556 -70.91454 6625 ft 174 kts 291°
2026-04-27 13:29 -41.23023 -70.92960 6349 ft 182 kts 291°
2026-04-27 13:29 -41.22492 -70.94487 6076 ft 183 kts 291°
2026-04-27 13:30 -41.21962 -70.96014 5808 ft 179 kts 291°
2026-04-27 13:30 -41.21620 -70.97005 5662 ft 180 kts 292°
2026-04-27 13:30 -41.21095 -70.98518 5414 ft 177 kts 292°
2026-04-27 13:30 -41.20441 -71.00405 5097 ft 162 kts 293°
2026-04-27 13:31 -41.19977 -71.01749 4892 ft 159 kts 293°
2026-04-27 13:31 -41.19664 -71.02651 4736 ft 160 kts 293°
2026-04-27 13:31 -41.19049 -71.04425 4449 ft 159 kts 294°
2026-04-27 13:31 -41.18747 -71.05297 4294 ft 156 kts 294°
2026-04-27 13:32 -41.18302 -71.06582 4112 ft 146 kts 294°
2026-04-27 13:32 -41.17912 -71.07706 3927 ft 125 kts 295°
2026-04-27 13:32 -41.17554 -71.08739 3737 ft 122 kts 294°
2026-04-27 13:32 -41.17199 -71.09759 3550 ft 122 kts 295°
2026-04-27 13:33 -41.16844 -71.10800 3388 ft 124 kts 294°
2026-04-27 13:33 -41.16483 -71.11848 3218 ft 125 kts 294°
2026-04-27 13:33 -41.16117 -71.12887 3066 ft 123 kts 294°
2026-04-27 13:33 -41.15773 -71.13893 2908 ft 119 kts 294°
2026-04-27 13:34 -41.15423 -71.14897 2779 ft 118 kts 294°
2026-04-27 13:34 -41.15125 -71.15751 2764 ft 80 kts 294°
2026-04-27 13:34 -41.14979 -71.16164 2763 ft 29 kts 297°
2026-04-27 13:34 -41.14923 -71.16320 2761 ft 12 kts 307°
2026-04-27 13:35 -41.14898 -71.16336 2761 ft 5 kts 352°
2026-04-27 13:35 -41.14859 -71.16324 2760 ft 7 kts 24°
2026-04-27 13:35 -41.14812 -71.16295 2759 ft 8 kts 26°
2026-04-27 13:35 -41.14775 -71.16288 2758 ft 5 kts 345°
2026-04-27 13:36 -41.14735 -71.16283 2758 ft 7 kts 35°
2026-04-27 13:36 -41.14701 -71.16229 2759 ft 8 kts 46°
2026-04-27 13:36 -41.14663 -71.16206 2758 ft 4 kts 347°
2026-04-27 13:36 -41.14650 -71.16205 2758 ft 0 kts 16°